sat.trackr.live / text

‹ back to catalog

NIMIQ 5

NORAD 35873 · 2009-050A

PAYLOAD ACTIVE UNKNOWN

§ Identity

Operator
Country
CA
Launch date
2009-09-17
Launch site
TYMSC
Launch vehicle
Mass (kg)
RCS (m²)
94.72

Purposes: comms

External: N2YO · Heavens-Above · Gunter

§ Orbital elements

Epoch: 2026-09-10T01:41:05.211744Z

Period
1,436.11 min
Inclination
0.0403°
Eccentricity
0.0002638
Mean motion
1.00271013 rev/d
Perigee alt
35,775.7 km
Apogee alt
35,797.9 km
Semi-major
42,164.9 km
B*
0.0000e+0
RAAN
265.7642°
Arg perigee
265.3722°
Mean anomaly
130.5502°
Rev number
6,219

§ Raw data

NIMIQ 51 35873U 09050A   26253.07019921 -.00000277  00000+0  00000+0 0  99922 35873   0.0403 265.7642 0002638 265.3722 130.5502  1.00271013 62192

JSON: /api/v1/satellites/35873 · /tle

For live sub-satellite position, see the globe view (requires WebGL).

§ Visibility from observer

Set your observer location to see the next 7 days of passes ≥ 10°. The values pass through the URL so the page stays shareable.

No JS? Fill the form by hand. The geolocation button needs JavaScript.